CDG1200 ZSCN-ZSJN

Flight info

Callsign CDG1200
Flight time N/A
Altitude 33100
Route LAP91D LAPEN W105 XSH/K0852S1010 W50 HFE/K0852S1040 W127 SEGPI/K0848S1010 V166 ELDIV V167 DO W126 DPX/K0850S1040 A593 ABTUB ABTUB8X
Aircraft B38M/M-SDE1FGHILORVWXY/HB1

Departure

Time 2026-04-21 13:55
Airport Nanchang Changbei International Airport (ZSCN)

Arrival

Time N/A
Airport Jinan Yaoqiang International Airport (ZSJN)
Time Latitude Longitude Altitude Speed Heading
2026-04-21 13:47 28.86564 115.90871 143 ft 0 kts 357°
2026-04-21 13:49 28.86575 115.90870 143 ft 2 kts 349°
2026-04-21 13:49 28.86591 115.90838 143 ft 9 kts 283°
2026-04-21 13:49 28.86530 115.90770 143 ft 17 kts 205°
2026-04-21 13:50 28.86410 115.90711 143 ft 20 kts 202°
2026-04-21 13:50 28.86345 115.90618 143 ft 13 kts 295°
2026-04-21 13:50 28.86388 115.90520 143 ft 15 kts 290°
2026-04-21 13:50 28.86369 115.90419 144 ft 14 kts 206°
2026-04-21 13:51 28.86274 115.90372 144 ft 16 kts 203°
2026-04-21 13:51 28.86165 115.90320 144 ft 18 kts 201°
2026-04-21 13:51 28.86045 115.90263 144 ft 19 kts 204°
2026-04-21 13:51 28.85916 115.90199 144 ft 21 kts 204°
2026-04-21 13:52 28.85782 115.90134 144 ft 20 kts 202°
2026-04-21 13:52 28.85654 115.90073 144 ft 19 kts 202°
2026-04-21 13:52 28.85534 115.90016 144 ft 18 kts 202°
2026-04-21 13:52 28.85422 115.89962 144 ft 17 kts 202°
2026-04-21 13:53 28.85318 115.89912 144 ft 16 kts 202°
2026-04-21 13:53 28.85220 115.89865 144 ft 15 kts 203°
2026-04-21 13:53 28.85131 115.89818 144 ft 14 kts 210°
2026-04-21 13:53 28.85040 115.89761 144 ft 13 kts 223°
2026-04-21 13:54 28.85039 115.89696 145 ft 8 kts 294°
2026-04-21 13:54 28.85067 115.89624 147 ft 11 kts 294°
2026-04-21 13:54 28.85095 115.89590 147 ft 5 kts 20°
2026-04-21 13:54 28.85278 115.89677 149 ft 64 kts 21°
2026-04-21 13:55 28.85910 115.89984 148 ft 131 kts 23°
2026-04-21 13:55 28.86918 115.90456 235 ft 177 kts 21°
2026-04-21 13:55 28.88089 115.90974 936 ft 182 kts 24°
2026-04-21 13:55 28.89096 115.91736 1882 ft 175 kts 31°
2026-04-21 13:56 28.90256 115.92401 2325 ft 198 kts 22°
2026-04-21 13:56 28.91597 115.93042 2757 ft 221 kts 20°
2026-04-21 13:56 28.93123 115.93748 3136 ft 252 kts 20°
2026-04-21 13:56 28.94794 115.94509 3833 ft 266 kts 19°
2026-04-21 13:57 28.96573 115.95308 4480 ft 284 kts 20°
2026-04-21 13:57 28.98447 115.96148 5249 ft 294 kts 18°
2026-04-21 13:57 29.00368 115.97010 6159 ft 300 kts 18°
2026-04-21 13:57 29.02283 115.97942 6970 ft 306 kts 19°
2026-04-21 13:58 29.04250 115.98904 7839 ft 309 kts 18°
2026-04-21 13:58 29.06241 115.99878 8692 ft 313 kts 18°
2026-04-21 13:58 29.08260 116.00865 9546 ft 317 kts 17°
2026-04-21 13:58 29.10304 116.01864 10297 ft 323 kts 17°
2026-04-21 13:59 29.12406 116.02892 10890 ft 334 kts 17°
2026-04-21 13:59 29.14545 116.03939 11678 ft 335 kts 17°
2026-04-21 13:59 29.16737 116.04814 12414 ft 331 kts
2026-04-21 13:59 29.18975 116.04796 13203 ft 318 kts 340°
2026-04-21 14:00 29.20953 116.03884 13877 ft 306 kts 319°
2026-04-21 14:00 29.22494 116.02263 14528 ft 299 kts 301°
2026-04-21 14:00 29.23561 116.00243 15215 ft 297 kts 293°
2026-04-21 14:00 29.24516 115.98124 15840 ft 301 kts 291°
2026-04-21 14:01 29.25425 115.95949 16497 ft 304 kts 290°
2026-04-21 14:01 29.26307 115.93734 17150 ft 308 kts 290°
2026-04-21 14:01 29.27183 115.91477 17771 ft 312 kts 289°
2026-04-21 14:01 29.28058 115.89188 18368 ft 315 kts 289°
2026-04-21 14:02 29.28933 115.86874 18919 ft 318 kts 289°
2026-04-21 14:02 29.29800 115.84566 19465 ft 321 kts 289°
2026-04-21 14:02 29.30688 115.82208 20010 ft 324 kts 289°
2026-04-21 14:03 29.32552 115.77457 21046 ft 333 kts 298°
2026-04-21 14:03 29.34092 115.75432 21572 ft 344 kts 316°
2026-04-21 14:03 29.36192 115.74026 22049 ft 357 kts 333°
2026-04-21 14:03 29.38516 115.72973 22535 ft 361 kts 333°
2026-04-21 14:04 29.40862 115.71913 23037 ft 364 kts 333°
2026-04-21 14:04 29.43230 115.70860 23511 ft 367 kts 333°
2026-04-21 14:04 29.45619 115.69808 23925 ft 369 kts 334°
2026-04-21 14:04 29.47993 115.68767 24368 ft 371 kts 334°
2026-04-21 14:05 29.50407 115.67710 24804 ft 372 kts 333°
2026-04-21 14:05 29.52833 115.66648 25210 ft 374 kts 333°
2026-04-21 14:05 29.55272 115.65580 25635 ft 376 kts 333°
2026-04-21 14:05 29.57723 115.64506 26041 ft 378 kts 333°
2026-04-21 14:06 29.60186 115.63427 26465 ft 379 kts 333°
2026-04-21 14:06 29.62663 115.62345 26792 ft 383 kts 333°
2026-04-21 14:06 29.65167 115.61250 27145 ft 386 kts 333°
2026-04-21 14:06 29.67679 115.60151 27539 ft 387 kts 333°
2026-04-21 14:07 29.70203 115.59044 27916 ft 389 kts 333°
2026-04-21 14:07 29.72703 115.57949 28277 ft 391 kts 333°
2026-04-21 14:07 29.75253 115.56831 28649 ft 394 kts 333°
2026-04-21 14:07 29.77831 115.55700 28861 ft 399 kts 333°
2026-04-21 14:08 29.80430 115.54559 29254 ft 400 kts 332°
2026-04-21 14:08 29.83036 115.53414 29589 ft 402 kts 332°
2026-04-21 14:08 29.85658 115.52261 29900 ft 405 kts 332°
2026-04-21 14:08 29.88292 115.51103 30197 ft 406 kts 332°
2026-04-21 14:09 29.90898 115.49956 30507 ft 407 kts 332°
2026-04-21 14:09 29.93542 115.48792 30817 ft 407 kts 332°
2026-04-21 14:09 29.96191 115.47624 31129 ft 408 kts 332°
2026-04-21 14:09 29.98842 115.46456 31429 ft 408 kts 332°
2026-04-21 14:10 30.01499 115.45285 31730 ft 409 kts 332°
2026-04-21 14:10 30.04159 115.44110 32029 ft 410 kts 331°
2026-04-21 14:10 30.06823 115.42934 32316 ft 410 kts 331°
2026-04-21 14:10 30.09490 115.41755 32613 ft 411 kts 331°
2026-04-21 14:11 30.12125 115.40590 32885 ft 411 kts 331°
2026-04-21 14:11 30.14805 115.39404 33092 ft 414 kts 331°
2026-04-21 14:11 30.17509 115.38207 33104 ft 420 kts 331°
2026-04-21 14:12 30.23038 115.35757 33095 ft 431 kts 332°
2026-04-21 14:12 30.28712 115.33241 33095 ft 442 kts 332°
2026-04-21 14:13 30.34472 115.30683 33099 ft 450 kts 332°
2026-04-21 14:13 30.37511 115.29697 33095 ft 462 kts 345°
2026-04-21 14:13 30.40770 115.29636 33100 ft 478 kts
2026-04-21 14:13 30.44040 115.30599 33095 ft 494 kts 16°
2026-04-21 14:14 30.47071 115.32576 33090 ft 509 kts 32°
2026-04-21 14:14 30.49587 115.35522 33091 ft 522 kts 50°
2026-04-21 14:14 30.51676 115.38989 33080 ft 524 kts 47°
2026-04-21 14:15 30.56153 115.45646 33123 ft 523 kts 48°
2026-04-21 14:15 30.60550 115.52262 33105 ft 521 kts 49°
2026-04-21 14:16 30.64975 115.58931 33091 ft 521 kts 49°
2026-04-21 14:16 30.69395 115.65607 33094 ft 521 kts 49°
2026-04-21 14:17 30.73782 115.72241 33113 ft 521 kts 50°
2026-04-21 14:17 30.78183 115.78909 33100 ft 519 kts 49°
2026-04-21 14:18 30.82579 115.85571 33111 ft 519 kts 49°
2026-04-21 14:18 30.86993 115.92222 33116 ft 519 kts 49°
2026-04-21 14:19 30.91426 115.98877 33109 ft 521 kts 50°
2026-04-21 14:19 30.95839 116.05516 33134 ft 521 kts 51°
2026-04-21 14:20 31.00267 116.12186 33127 ft 520 kts 51°
2026-04-21 14:20 31.04694 116.18868 33121 ft 521 kts 51°
2026-04-21 14:21 31.09116 116.25552 33126 ft 520 kts 51°
2026-04-21 14:21 31.13498 116.32182 33136 ft 519 kts 51°
2026-04-21 14:22 31.17900 116.38851 33125 ft 518 kts 51°
2026-04-21 14:22 31.22296 116.45524 33131 ft 519 kts 51°
2026-04-21 14:23 31.26692 116.52207 33137 ft 518 kts 51°
2026-04-21 14:23 31.31053 116.58848 33164 ft 518 kts 52°
2026-04-21 14:24 31.35445 116.65546 33103 ft 520 kts 52°
2026-04-21 14:24 31.37643 116.68902 33001 ft 520 kts 52°
2026-04-21 14:24 31.39840 116.72261 33011 ft 520 kts 52°
2026-04-21 14:25 31.44234 116.78989 33002 ft 520 kts 52°
2026-04-21 14:25 31.48615 116.85661 33019 ft 520 kts 51°
2026-04-21 14:26 31.53061 116.92374 33029 ft 523 kts 52°
2026-04-21 14:26 31.57507 116.99112 33017 ft 522 kts 52°
2026-04-21 14:27 31.61935 117.05874 33029 ft 523 kts 52°
2026-04-21 14:27 31.66276 117.12640 33016 ft 522 kts 52°
2026-04-21 14:28 31.70343 117.19663 32304 ft 521 kts 66°
2026-04-21 14:28 31.71543 117.23710 31060 ft 530 kts 78°
2026-04-21 14:28 31.72060 117.28007 30184 ft 530 kts 89°
2026-04-21 14:28 31.71959 117.32298 29499 ft 523 kts 97°
2026-04-21 14:29 31.71444 117.36520 28509 ft 522 kts 104°
2026-04-21 14:29 31.70481 117.40601 27406 ft 514 kts 116°
2026-04-21 14:29 31.68825 117.44215 25884 ft 508 kts 129°
2026-04-21 14:29 31.66802 117.47625 24412 ft 509 kts 129°
2026-04-21 14:30 31.64778 117.51005 23261 ft 503 kts 129°
2026-04-21 14:30 31.62970 117.54486 22004 ft 500 kts 117°
2026-04-21 14:30 31.61845 117.58318 20869 ft 495 kts 104°
2026-04-21 14:30 31.61515 117.62308 19793 ft 490 kts 90°
2026-04-21 14:31 31.61788 117.66254 18767 ft 481 kts 86°
2026-04-21 14:31 31.62122 117.70120 17648 ft 473 kts 85°
2026-04-21 14:31 31.62467 117.73873 16491 ft 465 kts 85°
2026-04-21 14:31 31.62824 117.77608 15372 ft 457 kts 85°
2026-04-21 14:32 31.63181 117.81279 14308 ft 449 kts 85°
2026-04-21 14:32 31.63532 117.84886 13241 ft 441 kts 85°
2026-04-21 14:32 31.63876 117.88432 12143 ft 433 kts 85°
2026-04-21 14:32 31.64215 117.91918 11141 ft 426 kts 85°
2026-04-21 14:33 31.64547 117.95352 10181 ft 423 kts 85°
2026-04-21 14:33 31.64877 117.98772 9648 ft 419 kts 85°
2026-04-21 14:33 31.65197 118.02090 9202 ft 411 kts 85°
2026-04-21 14:33 31.65512 118.05382 8870 ft 401 kts 85°
2026-04-21 14:34 31.65821 118.08590 8558 ft 391 kts 85°
2026-04-21 14:34 31.66115 118.11695 8095 ft 375 kts 86°
2026-04-21 14:34 31.66396 118.14697 7480 ft 365 kts 86°
2026-04-21 14:34 31.66659 118.17612 6904 ft 353 kts 89°
2026-04-21 14:35 31.66665 118.20445 6381 ft 342 kts 93°
2026-04-21 14:35 31.66656 118.23191 5845 ft 331 kts 92°
2026-04-21 14:35 31.66661 118.25852 5440 ft 316 kts 91°
2026-04-21 14:35 31.66688 118.28282 5462 ft 291 kts 91°
2026-04-21 14:36 31.66708 118.30510 5472 ft 266 kts 92°
2026-04-21 14:36 31.66709 118.32718 4875 ft 271 kts 92°
2026-04-21 14:36 31.66730 118.34727 5181 ft 232 kts 92°
2026-04-21 14:36 31.66735 118.36611 4907 ft 228 kts 93°
2026-04-21 14:37 31.66744 118.38433 4809 ft 219 kts 92°
2026-04-21 14:37 31.66753 118.40207 4608 ft 216 kts 92°
2026-04-21 14:37 31.66687 118.41952 4323 ft 212 kts 108°
2026-04-21 14:37 31.66167 118.43509 4058 ft 206 kts 119°
2026-04-21 14:38 31.65558 118.45025 3957 ft 205 kts 119°
2026-04-21 14:38 31.64959 118.46549 3952 ft 206 kts 118°
2026-04-21 14:38 31.64359 118.48078 4052 ft 207 kts 119°
2026-04-21 14:38 31.63752 118.49611 4146 ft 207 kts 119°
2026-04-21 14:39 31.63150 118.51133 4060 ft 206 kts 120°
2026-04-21 14:39 31.62540 118.52658 3836 ft 206 kts 118°
2026-04-21 14:39 31.61945 118.54180 3730 ft 205 kts 118°
2026-04-21 14:39 31.61404 118.55725 3638 ft 204 kts 116°
2026-04-21 14:40 31.60862 118.57238 3569 ft 205 kts 116°
2026-04-21 14:40 31.60338 118.58784 3517 ft 204 kts 112°
2026-04-21 14:40 31.59842 118.60351 3465 ft 207 kts 114°
2026-04-21 14:40 31.59626 118.62023 3461 ft 210 kts 83°
2026-04-21 14:41 31.60132 118.63624 3512 ft 212 kts 59°
2026-04-21 14:41 31.60909 118.65100 3511 ft 214 kts 61°
2026-04-21 14:41 31.61667 118.66607 3519 ft 215 kts 59°
2026-04-21 14:41 31.62435 118.68091 3306 ft 214 kts 60°
2026-04-21 14:42 31.63205 118.69564 3051 ft 210 kts 62°
2026-04-21 14:42 31.63994 118.71001 2772 ft 209 kts 60°
2026-04-21 14:42 31.64737 118.72445 2500 ft 201 kts 63°
2026-04-21 14:42 31.65445 118.73793 2254 ft 186 kts 61°
2026-04-21 14:43 31.66117 118.75024 2015 ft 172 kts 62°
2026-04-21 14:43 31.66713 118.76148 1828 ft 153 kts 65°
2026-04-21 14:43 31.67260 118.77172 1650 ft 149 kts 64°
2026-04-21 14:43 31.67808 118.78189 1417 ft 147 kts 64°
2026-04-21 14:44 31.68346 118.79199 1211 ft 144 kts 62°
2026-04-21 14:44 31.68894 118.80189 971 ft 145 kts 61°
2026-04-21 14:44 31.69424 118.81176 814 ft 141 kts 63°
2026-04-21 14:44 31.69934 118.82154 580 ft 141 kts 62°
2026-04-21 14:45 31.70443 118.83114 420 ft 137 kts 61°
2026-04-21 14:45 31.70945 118.84064 245 ft 138 kts 59°
2026-04-21 14:45 31.71461 118.85014 102 ft 138 kts 59°
2026-04-21 14:45 31.71932 118.85914 57 ft 114 kts 58°
2026-04-21 14:46 31.72239 118.86478 53 ft 53 kts 58°
2026-04-21 14:46 31.72397 118.86661 56 ft 26 kts 31°
2026-04-21 14:46 31.72568 118.86776 60 ft 29 kts 31°
2026-04-21 14:46 31.72698 118.86950 58 ft 27 kts 54°
2026-04-21 14:47 31.72813 118.87019 59 ft 16 kts 332°
2026-04-21 14:47 31.72898 118.86981 57 ft 10 kts 25°
2026-04-21 14:47 31.72931 118.87032 59 ft 6 kts 49°
2026-04-21 14:47 31.72958 118.87058 57 ft 4 kts 14°
2026-04-21 14:48 31.72975 118.87057 56 ft 1 kts 341°
2026-04-21 14:48 31.72982 118.87052 56 ft 4 kts 326°
2026-04-21 14:48 31.73023 118.87021 59 ft 6 kts 328°
2026-04-21 14:48 31.73034 118.87013 55 ft 0 kts 327°
2026-04-21 14:49 31.73036 118.87012 56 ft 1 kts 327°
2026-04-21 14:49 31.73037 118.87011 57 ft 0 kts 327°